[[{"header":{"parameterUnit":"m.s-1","parameterCategory":2,"la1":30.2991,"la2":30.254,"lo1":-89.0895,"lo2":-89.0444,"dy":0.0017,"dx":0.0017,"nx":28,"ny":28,"refTime":"2025-08-29T21:00:00:Z","depth":"0","parameterNumber":2,"parameterNumberName":"U-component_of_CURRENTS"},"data":[0,0,0,0,0,0,0,0,0,0,0,0,0,0,0,0,0,0,0,0,0,0,0,0,0,0,0,0,0,0,0,0,0,0,0,0,0,0,0,0,0,0,0,0,0,0,0,0,0,0,0,0,0,0,0,0,0,0,0.2429,0.2429,0,0.2448,0.2448,0.2448,0.2454,0.2454,0.2454,0.2454,0.244,0.244,0.2439,0,0,0,0,0,0,0,0,0,0,0,0,0,0.2389,0.239,0.2429,0.2429,0.2429,0.2448,0.2448,0.2448,0.2454,0.2454,0.2454,0.2454,0.244,0.244,0.2439,0,0,0,0,0,0,0,0,0,0,0,0,0,0.2406,0.239,0.2429,0.2436,0.2437,0.2448,0.2448,0.2448,0.2454,0.2454,0.2454,0.2454,0.244,0.244,0.2439,0.2434,0,0,0.2437,0.2437,0,0,0,0,0,0,0,0,0.2405,0.2407,0.2434,0.2435,0.2436,0.245,0.2429,0.2442,0.2454,0.2446,0.2454,0.2454,0.2441,0.2441,0.2442,0.2433,0.2432,0.2437,0.2437,0.2436,0.2436,0,0,0,0,0,0,0,0.2404,0.2406,0.2435,0.2435,0.2436,0.2436,0.2438,0.2432,0.2441,0.2446,0.2447,0.2452,0.2442,0.2443,0.2442,0.2432,0.2437,0.2437,0.2436,0.2436,0.2448,0.2449,0,0,0,0,0,0,0.2405,0.2405,0.2434,0.2435,0.2422,0.2437,0.2439,0.2444,0.2442,0.2442,0.2452,0.2452,0.2444,0.2443,0.2441,0.2465,0.2436,0.2436,0.2436,0.2447,0.2448,0.2449,0,0,0,0,0,0,0.2404,0.2407,0.2433,0.2422,0.2425,0.2437,0.2443,0.2445,0.2449,0.2447,0.2446,0.2456,0.2444,0.2442,0.2446,0.2463,0.2436,0.2435,0.2447,0.2448,0.2449,0.2493,0,0,0,0,0,0,0.2403,0.2407,0.241,0.2422,0.2426,0.2445,0.2443,0.2445,0.2453,0.2453,0.2449,0.2448,0.2444,0.2447,0.2445,0.2462,0.2435,0.2446,0.2447,0.2448,0.2491,0.2495,0.2499,0,0,0,0,0,0.2401,0.2404,0.241,0.2414,0.2431,0.2445,0.2447,0.2455,0.2453,0.2458,0.2459,0.2448,0.2454,0.2447,0.2445,0.2462,0.2445,0.2447,0.2448,0.2489,0.2494,0.2499,0,0,0,0,0,0,0.2384,0.2405,0.2412,0.242,0.2435,0.2447,0.2452,0.2456,0.246,0.2459,0.2454,0.2453,0.2466,0.2455,0.2447,0.2469,0.2449,0.245,0.248,0.2486,0.249,0.2502,0.2434,0,0,0,0,0,0.2384,0.2393,0.2413,0.2419,0.2428,0.244,0.2446,0.2453,0.246,0.2462,0.2461,0.2462,0.2471,0.247,0.2473,0.2478,0.2499,0.2489,0.2493,0.2497,0.2506,0.2553,0.2563,0.2454,0.2454,0.2454,0,0,0.2377,0.2391,0.2395,0.2417,0.2428,0.2445,0.2444,0.2456,0.2472,0.2458,0.2475,0.2477,0.2476,0.2492,0.2496,0.2484,0.2542,0.2499,0.2503,0.2509,0.2556,0.2567,0.2576,0.2455,0.2455,0.2455,0,0,0.2371,0.2384,0.2392,0.241,0.2433,0.2445,0.245,0.2467,0.2478,0.2492,0.2495,0.251,0.2507,0.2524,0.2528,0.2556,0.2566,0.2552,0.2582,0.2627,0.2637,0.2646,0.2702,0.2715,0.2551,0.2551,0.2551,0,0.2362,0.2381,0.2396,0.2415,0.2432,0.2447,0.2465,0.248,0.2496,0.2515,0.2501,0.2534,0.2528,0.2568,0.2577,0.2568,0.2598,0.2562,0.2635,0.2644,0.2652,0.2707,0.2721,0.2554,0.2553,0.2553,0.2553,0,0.2368,0.2388,0.2396,0.2428,0.2446,0.2464,0.2493,0.2512,0.2523,0.2543,0.2582,0.2583,0.2607,0.2606,0.2597,0.2654,0.266,0.2639,0.2624,0.2666,0.2721,0.2735,0.2557,0.2556,0.2555,0.2555,0,0,0.2338,0.239,0.2393,0.2416,0.2458,0.2472,0.251,0.2554,0.2587,0.2604,0.2651,0.2665,0.2676,0.2682,0.2681,0.2711,0.2793,0.2699,0.27,0.276,0.2912,0.2929,0.2946,0.2788,0.279,0.2792,0.2933,0,0.234,0.2373,0.2404,0.2441,0.2462,0.2502,0.2539,0.258,0.2614,0.2663,0.2689,0.2726,0.2703,0.2719,0.2751,0.2783,0.283,0.2758,0.2857,0.286,0.2875,0.2962,0.2822,0.2937,0.2947,0.2949,0.2951,0,0.2337,0.2363,0.2394,0.2458,0.2472,0.2496,0.2565,0.2601,0.2679,0.2712,0.2764,0.2788,0.285,0.2812,0.2911,0.2869,0.29,0.2918,0.2923,0.2933,0.2903,0.2893,0.2962,0.2861,0.2972,0.297,0.2969,0,0.2302,0.2359,0.2382,0.2402,0.2471,0.2498,0.2536,0.261,0.2661,0.2746,0.2796,0.2867,0.2912,0.2961,0.301,0.2968,0.3121,0.3066,0.3118,0.312,0.3018,0.3007,0.3003,0.3147,0.3146,0.3146,0.3145,0,0.2292,0.2314,0.2366,0.238,0.242,0.2473,0.2528,0.2586,0.268,0.2745,0.2815,0.2884,0.295,0.3039,0.3063,0.3159,0.3175,0.3156,0.3168,0.3031,0.302,0.2939,0.2891,0.3151,0.315,0.3149,0.3148,0,0.2252,0.2285,0.232,0.2384,0.2403,0.2429,0.2521,0.257,0.2662,0.2753,0.2787,0.2927,0.3053,0.3135,0.3235,0.3238,0.3222,0.3336,0.3183,0.3174,0.3105,0.3065,0.3016,0.2924,0.3415,0.3417,0.3418,0,0.2235,0.2245,0.2305,0.2327,0.2356,0.2402,0.2443,0.2544,0.2609,0.2771,0.2823,0.2984,0.3108,0.3301,0.334,0.344,0.3292,0.3336,0.3224,0.3117,0.3081,0.2952,0.2866,0.311,0.3108,0.3107,0.3106,0,0.221,0.2228,0.2257,0.2298,0.2334,0.2377,0.2445,0.2499,0.262,0.2724,0.2881,0.2997,0.3199,0.3255,0.3387,0.3405,0.316,0.3317,0.323,0.2881,0.2714,0.2624,0.3013,0.3096,0.3097,0.3097,0.3098,0.3098,0.2189,0.22,0.2237,0.2272,0.2311,0.2347,0.2354,0.2449,0.2551,0.2666,0.2834,0.2951,0.3071,0.3262,0.3274,0.3173,0.316,0.3033,0.3011,0.2904,0.2752,0.3146,0.3225,0.3227,0.3228,0.3229,0.3231,0,0.2168,0.2185,0.2215,0.2243,0.2253,0.2292,0.2351,0.2344,0.2419,0.2569,0.2695,0.2807,0.2883,0.2947,0.295,0.285,0.2699,0.275,0.2493,0.2437,0.2808,0.2729,0.2674,0.2674,0.2674,0.2675,0.2675,0.2675,0.2159,0.2169,0.218,0.2175,0.2188,0.2153,0.2161,0.2171,0.2244,0.2325,0.2382,0.2477,0.2647,0.272,0.2624,0.2556,0.2325,0.2247,0.2249,0.2465,0.2487,0.2507,0.2421,0.2302,0.2302,0.1735,0.1731,0.1728]},{"header":{"parameterUnit":"m.s-1","parameterCategory":2,"la1":30.2991,"la2":30.254,"lo1":-89.0895,"lo2":-89.0444,"dy":0.0017,"dx":0.0017,"nx":28,"ny":28,"refTime":"2025-08-29T21:00:00:Z","depth":"0","parameterNumber":3,"parameterNumberName":"V-component_of_CURRENTS"},"data":[0,0,0,0,0,0,0,0,0,0,0,0,0,0,0,0,0,0,0,0,0,0,0,0,0,0,0,0,0,0,0,0,0,0,0,0,0,0,0,0,0,0,0,0,0,0,0,0,0,0,0,0,0,0,0,0,0,0,-0.0155,-0.0155,0,-0.0199,-0.02,-0.02,-0.0242,-0.0242,-0.0243,-0.0243,-0.0319,-0.0321,-0.0322,0,0,0,0,0,0,0,0,0,0,0,0,0,-0.0133,-0.0133,-0.0155,-0.0155,-0.0156,-0.0199,-0.02,-0.02,-0.0242,-0.0242,-0.0243,-0.0243,-0.0319,-0.0321,-0.0323,0,0,0,0,0,0,0,0,0,0,0,0,0,-0.0157,-0.0133,-0.0155,-0.0181,-0.0183,-0.0199,-0.02,-0.0201,-0.0242,-0.0242,-0.0243,-0.0243,-0.0318,-0.032,-0.0323,-0.0326,0,0,-0.033,-0.0331,0,0,0,0,0,0,0,0,-0.0156,-0.0158,-0.0176,-0.0179,-0.0182,-0.0214,-0.022,-0.0244,-0.0241,-0.0221,-0.0243,-0.0244,-0.0286,-0.0291,-0.0299,-0.033,-0.0333,-0.0331,-0.0332,-0.0333,-0.0334,0,0,0,0,0,0,0,-0.0154,-0.0157,-0.0174,-0.0177,-0.018,-0.0199,-0.0203,-0.0225,-0.0251,-0.0223,-0.0225,-0.0228,-0.0288,-0.0297,-0.0301,-0.0334,-0.0331,-0.0333,-0.0334,-0.0335,-0.0374,-0.0374,0,0,0,0,0,0,-0.0144,-0.0155,-0.0172,-0.0175,-0.0168,-0.0198,-0.0203,-0.0204,-0.025,-0.0257,-0.0227,-0.023,-0.0292,-0.0299,-0.0304,-0.0309,-0.0333,-0.0335,-0.0337,-0.0375,-0.0374,-0.0374,0,0,0,0,0,0,-0.0143,-0.0145,-0.0171,-0.0165,-0.0169,-0.0198,-0.0199,-0.0205,-0.0213,-0.0253,-0.0261,-0.0229,-0.0293,-0.0301,-0.032,-0.0312,-0.0337,-0.0339,-0.0375,-0.0375,-0.0374,-0.0319,0,0,0,0,0,0,-0.0142,-0.0144,-0.0142,-0.0164,-0.0169,-0.0171,-0.0199,-0.0205,-0.0213,-0.0216,-0.0257,-0.0265,-0.0294,-0.0316,-0.0322,-0.0316,-0.0341,-0.0376,-0.0375,-0.0374,-0.0322,-0.0317,-0.0313,0,0,0,0,0,-0.0141,-0.0129,-0.0142,-0.0144,-0.0165,-0.017,-0.0174,-0.0198,-0.0212,-0.0209,-0.0239,-0.0264,-0.0315,-0.0317,-0.0325,-0.0319,-0.0376,-0.0375,-0.0374,-0.0324,-0.0318,-0.0313,0,0,0,0,0,0,-0.0113,-0.0133,-0.0147,-0.0141,-0.0152,-0.0177,-0.0176,-0.0192,-0.0213,-0.0218,-0.0258,-0.0268,-0.0283,-0.0306,-0.0307,-0.0328,-0.0349,-0.035,-0.0308,-0.0303,-0.0299,-0.0293,-0.0343,0,0,0,0,0,-0.0107,-0.0107,-0.0126,-0.0121,-0.0125,-0.015,-0.0156,-0.017,-0.0191,-0.02,-0.0228,-0.0259,-0.0284,-0.0297,-0.0321,-0.0331,-0.0358,-0.0332,-0.0328,-0.0324,-0.0324,-0.0366,-0.0366,-0.037,-0.037,-0.037,0,0,-0.0094,-0.0104,-0.0105,-0.0115,-0.0128,-0.0125,-0.0155,-0.0156,-0.0156,-0.0205,-0.0213,-0.0244,-0.0283,-0.0295,-0.0304,-0.0314,-0.0332,-0.0322,-0.0319,-0.0321,-0.0365,-0.0365,-0.0365,-0.037,-0.037,-0.037,0,0,-0.0064,-0.0077,-0.0068,-0.0074,-0.0086,-0.0101,-0.0098,-0.0119,-0.0132,-0.0141,-0.0179,-0.0204,-0.0236,-0.0265,-0.0285,-0.0269,-0.0307,-0.0274,-0.0248,-0.0288,-0.0289,-0.0289,-0.0303,-0.0306,-0.0272,-0.0271,-0.0271,0,-0.0048,-0.004,-0.0064,-0.0054,-0.0055,-0.0087,-0.0073,-0.0088,-0.0111,-0.0122,-0.0135,-0.0193,-0.0223,-0.0251,-0.0245,-0.026,-0.0281,-0.0264,-0.0283,-0.0284,-0.0286,-0.0301,-0.0304,-0.0269,-0.0269,-0.0269,-0.027,0,-0.0011,-0.0006,0.0003,-0.0,-0.0003,0.0006,-0.0017,-0.0024,-0.0045,-0.0066,-0.0095,-0.0141,-0.0177,-0.0188,-0.0212,-0.0236,-0.0246,-0.0273,-0.0296,-0.0282,-0.0298,-0.0303,-0.0265,-0.0266,-0.0267,-0.0267,0,0,0.0027,0.0028,0.0031,0.0037,0.0026,0.0029,0.0028,0.0015,0.001,-0.0023,-0.0035,-0.0083,-0.0114,-0.0138,-0.0177,-0.0211,-0.0232,-0.024,-0.0244,-0.0252,-0.0304,-0.0272,-0.0274,-0.0265,-0.0266,-0.0267,-0.0304,0,0.0062,0.0093,0.0081,0.0108,0.012,0.0091,0.0093,0.0074,0.0049,0.0031,-0.0028,-0.0053,-0.0094,-0.011,-0.0152,-0.0212,-0.0245,-0.0218,-0.0319,-0.0321,-0.0294,-0.0279,-0.0229,-0.0255,-0.0308,-0.0309,-0.031,0,0.0102,0.0116,0.015,0.0156,0.0158,0.0166,0.0156,0.0152,0.0112,0.0092,0.0049,0.0005,-0.0046,-0.0086,-0.0185,-0.0167,-0.0229,-0.028,-0.0283,-0.0278,-0.0298,-0.0283,-0.0262,-0.0391,-0.0317,-0.0317,-0.0316,0,0.014,0.0163,0.0191,0.0195,0.0197,0.0202,0.0197,0.017,0.0171,0.0128,0.0127,0.0048,0.0025,-0.0076,-0.0162,-0.0181,-0.0267,-0.031,-0.0341,-0.0339,-0.0329,-0.0324,-0.0444,-0.0389,-0.0389,-0.0389,-0.0388,0,0.0181,0.0202,0.0211,0.0227,0.0256,0.0239,0.0256,0.0239,0.0223,0.024,0.0161,0.0168,0.0025,-0.0035,-0.0141,-0.0233,-0.0251,-0.033,-0.0349,-0.0304,-0.0297,-0.0435,-0.0518,-0.039,-0.039,-0.0389,-0.0389,0,0.0213,0.0221,0.0253,0.0267,0.0274,0.0291,0.0304,0.0318,0.0295,0.0317,0.0311,0.0259,0.02,0.0067,-0.0074,-0.0181,-0.0352,-0.0323,-0.0241,-0.025,-0.0406,-0.0486,-0.0629,-0.0681,-0.0374,-0.0373,-0.0373,0,0.0231,0.0253,0.0286,0.0313,0.032,0.0344,0.0364,0.0353,0.0382,0.0389,0.0417,0.0372,0.0384,0.02,0.0014,-0.0153,-0.0307,-0.0258,-0.0295,-0.0401,-0.0506,-0.0572,-0.0612,-0.0256,-0.0254,-0.0253,-0.0252,0,0.0266,0.0278,0.0306,0.0362,0.0394,0.0435,0.0472,0.0512,0.0519,0.0571,0.0649,0.0664,0.0505,0.0388,0.0138,-0.0006,-0.0336,-0.024,-0.0387,-0.0449,-0.0495,-0.0556,-0.0233,-0.0242,-0.0243,-0.0244,-0.0244,-0.0245,0.0293,0.0321,0.0364,0.0418,0.0464,0.0541,0.0599,0.0672,0.0767,0.0887,0.0866,0.0957,0.0712,0.041,0.0183,-0.0213,-0.0252,-0.0344,-0.0438,-0.0498,-0.054,-0.0174,-0.0183,-0.0183,-0.0184,-0.0184,-0.0185,0,0.0336,0.0368,0.042,0.0495,0.0567,0.0579,0.0685,0.0773,0.0939,0.1079,0.1191,0.1162,0.0853,0.0475,-0.0055,-0.0352,-0.0488,-0.0539,-0.0643,-0.068,-0.038,-0.0365,-0.0368,-0.0368,-0.0368,-0.0368,-0.0368,-0.0367,0.0361,0.0418,0.0445,0.0573,0.0636,0.0753,0.0833,0.0983,0.1119,0.1342,0.1448,0.149,0.1182,0.0221,-0.0444,-0.0606,-0.0847,-0.0881,-0.1021,-0.0837,-0.0827,-0.0817,-0.0823,-0.0923,-0.0923,-0.1261,-0.1265,-0.1267]}],[{"header":{"parameterUnit":"m.s-1","parameterCategory":2,"la1":30.2991,"la2":30.254,"lo1":-89.0895,"lo2":-89.0444,"dy":0.0017,"dx":0.0017,"nx":28,"ny":28,"refTime":"2025-08-29T21:00:00:Z","depth":"2","parameterNumber":2,"parameterNumberName":"U-component_of_CURRENTS"},"data":[0,0,0,0,0,0,0,0,0,0,0,0,0,0,0,0,0,0,0,0,0,0,0,0,0,0,0,0,0,0,0,0,0,0,0,0,0,0,0,0,0,0,0,0,0,0,0,0,0,0,0,0,0,0,0,0,0,0,0.2061,0.2062,0,0.209,0.209,0.209,0.2089,0.2089,0.2089,0.2089,0.2104,0.2104,0.2104,0,0,0,0,0,0,0,0,0,0,0,0,0,0.2027,0.2027,0.2061,0.2062,0.2063,0.209,0.209,0.209,0.2089,0.2089,0.2089,0.2089,0.2103,0.2104,0.2104,0,0,0,0,0,0,0,0,0,0,0,0,0,0.2043,0.2027,0.2061,0.2069,0.207,0.209,0.209,0.209,0.2089,0.2089,0.2089,0.2089,0.2103,0.2104,0.2105,0.2109,0,0,0.2106,0.2107,0,0,0,0,0,0,0,0,0.2042,0.2044,0.2067,0.2068,0.207,0.209,0.2084,0.2097,0.2089,0.2077,0.2089,0.2089,0.21,0.2101,0.2101,0.211,0.211,0.2106,0.2107,0.2107,0.2107,0,0,0,0,0,0,0,0.2041,0.2043,0.2068,0.2068,0.2069,0.2079,0.208,0.2086,0.2085,0.2078,0.2079,0.2089,0.2101,0.21,0.2101,0.2111,0.2106,0.2107,0.2107,0.2108,0.2153,0.2153,0,0,0,0,0,0,0.2045,0.2042,0.2068,0.207,0.206,0.2079,0.2081,0.208,0.2085,0.2088,0.2089,0.2089,0.2099,0.2101,0.2102,0.2142,0.2107,0.2108,0.2108,0.2152,0.2153,0.2154,0,0,0,0,0,0,0.2044,0.2047,0.2067,0.2061,0.2064,0.208,0.2079,0.2081,0.2095,0.2095,0.2096,0.2104,0.2099,0.2101,0.2115,0.2141,0.2108,0.2108,0.2151,0.2152,0.2153,0.22,0,0,0,0,0,0,0.2043,0.2046,0.2047,0.206,0.2065,0.2089,0.208,0.2081,0.2102,0.2103,0.2108,0.2108,0.2099,0.2114,0.2116,0.2141,0.2109,0.215,0.2151,0.2153,0.2197,0.2203,0.2207,0,0,0,0,0,0.2041,0.2043,0.2046,0.205,0.2065,0.209,0.2093,0.2101,0.2103,0.2113,0.2113,0.2109,0.2126,0.2116,0.2117,0.2143,0.2149,0.2151,0.2153,0.2195,0.2202,0.2207,0,0,0,0,0,0,0.2022,0.2044,0.2048,0.2054,0.2076,0.2091,0.2105,0.2112,0.212,0.2122,0.2117,0.2118,0.2142,0.2134,0.2124,0.216,0.2138,0.214,0.217,0.2176,0.218,0.2194,0.2109,0,0,0,0,0,0.2021,0.2034,0.2054,0.2063,0.2076,0.2094,0.2107,0.2114,0.2126,0.213,0.2131,0.2136,0.2149,0.2155,0.2161,0.2179,0.2194,0.2197,0.2202,0.2206,0.2219,0.2267,0.2278,0.216,0.216,0.216,0,0,0.2018,0.2034,0.204,0.2062,0.2081,0.21,0.2101,0.2127,0.2142,0.213,0.2148,0.2155,0.2159,0.2179,0.219,0.2177,0.2246,0.2209,0.2213,0.2223,0.227,0.2282,0.2292,0.2161,0.2161,0.2161,0,0,0.2023,0.2034,0.2047,0.2069,0.2103,0.2115,0.2128,0.2149,0.2158,0.218,0.2177,0.2198,0.2211,0.2218,0.2225,0.2261,0.2273,0.2266,0.2302,0.2349,0.2359,0.2369,0.2398,0.241,0.2267,0.2267,0.2267,0,0.2019,0.2034,0.2056,0.2077,0.2097,0.2125,0.2144,0.216,0.2181,0.2196,0.2192,0.2234,0.2231,0.227,0.2281,0.2274,0.2301,0.2279,0.2357,0.2366,0.2375,0.2403,0.2416,0.2269,0.2269,0.2269,0.2268,0,0.203,0.2049,0.2065,0.2098,0.212,0.2148,0.2175,0.2194,0.2213,0.2235,0.2281,0.2285,0.2313,0.2317,0.2311,0.2374,0.2373,0.2361,0.2344,0.239,0.2416,0.2428,0.2273,0.2272,0.2271,0.227,0,0,0.2008,0.206,0.2067,0.2083,0.2135,0.215,0.2187,0.2227,0.2267,0.2289,0.234,0.2362,0.2382,0.2392,0.2393,0.2431,0.2508,0.2429,0.243,0.2463,0.2615,0.2559,0.2566,0.2521,0.2523,0.2525,0.2607,0,0.2013,0.2046,0.2075,0.211,0.213,0.2169,0.221,0.225,0.2295,0.235,0.2377,0.2432,0.2407,0.2439,0.2472,0.2511,0.2543,0.2487,0.2562,0.2564,0.2512,0.2579,0.2372,0.2423,0.2618,0.262,0.2622,0,0.2011,0.2037,0.2067,0.2121,0.2136,0.2165,0.2236,0.2275,0.2363,0.241,0.2469,0.25,0.2563,0.2536,0.2624,0.2596,0.261,0.2629,0.2632,0.2574,0.253,0.2409,0.2438,0.2642,0.264,0.2639,0.2637,0,0.1976,0.2027,0.2049,0.2068,0.2137,0.2162,0.2206,0.2294,0.2349,0.2459,0.2515,0.2594,0.2643,0.2688,0.2716,0.2689,0.2812,0.2771,0.2727,0.2722,0.2556,0.2533,0.2829,0.2829,0.2828,0.2828,0.2828,0,0.1967,0.1983,0.2037,0.205,0.2096,0.2149,0.2226,0.2287,0.24,0.2476,0.2545,0.2616,0.2689,0.2752,0.2764,0.2794,0.2849,0.2755,0.2751,0.2564,0.2542,0.2734,0.2722,0.2831,0.2831,0.283,0.283,0,0.1929,0.1963,0.1989,0.2055,0.2081,0.2113,0.2231,0.229,0.2403,0.2503,0.2543,0.2663,0.2749,0.2797,0.2884,0.285,0.2888,0.2873,0.2645,0.2612,0.2751,0.2741,0.284,0.2839,0.2838,0.2837,0.2837,0,0.1914,0.1922,0.1981,0.2003,0.2037,0.2105,0.2163,0.2286,0.2345,0.252,0.2549,0.2678,0.2728,0.2834,0.2831,0.2852,0.2887,0.2657,0.2556,0.2772,0.2759,0.2749,0.274,0.2352,0.2348,0.2344,0.2341,0,0.1885,0.1904,0.1929,0.1974,0.202,0.2074,0.2151,0.2198,0.2338,0.2413,0.2516,0.2579,0.2684,0.2621,0.2658,0.2639,0.2641,0.2581,0.2891,0.238,0.2318,0.2303,0.2309,0.2308,0.2311,0.2313,0.2315,0.2317,0.1859,0.1874,0.1906,0.1939,0.1992,0.202,0.2027,0.21,0.2167,0.2226,0.2365,0.2373,0.2437,0.2375,0.2333,0.2311,0.2478,0.236,0.2369,0.2382,0.231,0.225,0.2213,0.2215,0.2217,0.2219,0.2221,0,0.1833,0.1847,0.1871,0.1906,0.1925,0.1972,0.2001,0.1966,0.1978,0.2051,0.2093,0.1953,0.1927,0.1995,0.1913,0.1934,0.1891,0.1855,0.1772,0.1809,0.184,0.1736,0.1489,0.1486,0.1484,0.1482,0,0,0.1823,0.182,0.1826,0.1816,0.1853,0.1811,0.1794,0.1751,0.1744,0.1685,0.1671,0.179,0.1915,0.1646,0.1646,0.1548,0.1653,0.1492,0.2087,0.2024,0.2051,0.2152,0.2037,0,0,0,0,0]},{"header":{"parameterUnit":"m.s-1","parameterCategory":2,"la1":30.2991,"la2":30.254,"lo1":-89.0895,"lo2":-89.0444,"dy":0.0017,"dx":0.0017,"nx":28,"ny":28,"refTime":"2025-08-29T21:00:00:Z","depth":"2","parameterNumber":3,"parameterNumberName":"V-component_of_CURRENTS"},"data":[0,0,0,0,0,0,0,0,0,0,0,0,0,0,0,0,0,0,0,0,0,0,0,0,0,0,0,0,0,0,0,0,0,0,0,0,0,0,0,0,0,0,0,0,0,0,0,0,0,0,0,0,0,0,0,0,0,0,0.0083,0.0083,0,0.0048,0.0048,0.0048,0.003,0.003,0.003,0.003,-0.0035,-0.0036,-0.0038,0,0,0,0,0,0,0,0,0,0,0,0,0,0.0095,0.0095,0.0083,0.0083,0.0082,0.0048,0.0048,0.0047,0.003,0.003,0.003,0.003,-0.0034,-0.0036,-0.0038,0,0,0,0,0,0,0,0,0,0,0,0,0,0.0078,0.0095,0.0083,0.0069,0.0068,0.0048,0.0048,0.0047,0.003,0.003,0.003,0.003,-0.0033,-0.0036,-0.0038,-0.0053,0,0,-0.0046,-0.0047,0,0,0,0,0,0,0,0,0.0079,0.0078,0.0072,0.007,0.0068,0.0043,0.0028,0.0012,0.003,0.0045,0.003,0.003,-0.0012,-0.0016,-0.0022,-0.0056,-0.0059,-0.0046,-0.0048,-0.0049,-0.005,0,0,0,0,0,0,0,0.008,0.0079,0.007,0.0071,0.0069,0.0051,0.0049,0.0025,0.0017,0.0043,0.0042,0.0038,-0.0013,-0.0019,-0.0023,-0.006,-0.0046,-0.0049,-0.005,-0.0051,-0.0108,-0.0108,0,0,0,0,0,0,0.0086,0.008,0.0071,0.0069,0.0074,0.0051,0.0049,0.0052,0.0018,0.0013,0.0038,0.0037,-0.0015,-0.002,-0.0026,-0.0035,-0.0049,-0.0051,-0.0053,-0.0108,-0.0108,-0.0108,0,0,0,0,0,0,0.0087,0.0086,0.0072,0.0073,0.007,0.0051,0.0054,0.0051,0.0044,0.0014,0.0008,0.0034,-0.0015,-0.0022,-0.004,-0.0038,-0.0053,-0.0055,-0.0108,-0.0108,-0.0108,-0.006,0,0,0,0,0,0,0.0088,0.0087,0.0091,0.0074,0.007,0.0067,0.0054,0.005,0.0042,0.004,0.0009,0.0003,-0.0016,-0.0036,-0.0043,-0.0042,-0.0057,-0.0108,-0.0108,-0.0108,-0.0062,-0.0059,-0.0056,0,0,0,0,0,0.0088,0.0098,0.0092,0.0091,0.0077,0.0068,0.0064,0.005,0.0042,0.0043,0.0023,0.0004,-0.0041,-0.0038,-0.0046,-0.0046,-0.0108,-0.0108,-0.0108,-0.0063,-0.0059,-0.0056,0,0,0,0,0,0,0.0106,0.0096,0.009,0.0096,0.0085,0.0065,0.0063,0.0052,0.0037,0.0034,0.0005,-0.0002,-0.0018,-0.0039,-0.0035,-0.0063,-0.0078,-0.008,-0.0042,-0.0039,-0.0036,-0.002,-0.0059,0,0,0,0,0,0.0112,0.0115,0.0101,0.0105,0.0101,0.0081,0.0075,0.0066,0.0049,0.0043,0.0021,-0.0003,-0.0024,-0.0036,-0.0058,-0.0072,-0.0092,-0.0079,-0.0076,-0.0073,-0.0066,-0.0097,-0.0096,-0.0108,-0.0108,-0.0108,0,0,0.0118,0.0114,0.0115,0.0109,0.0098,0.0101,0.0078,0.0072,0.0075,0.0037,0.0033,0.0006,-0.0026,-0.0039,-0.0049,-0.0056,-0.0078,-0.0073,-0.007,-0.0064,-0.0097,-0.0095,-0.0094,-0.0108,-0.0108,-0.0108,0,0,0.0136,0.013,0.014,0.0135,0.0124,0.0113,0.0113,0.0095,0.0088,0.0078,0.0053,0.003,-0.0003,-0.0021,-0.0036,-0.0032,-0.0062,-0.0043,-0.0015,-0.0045,-0.0044,-0.0044,-0.0058,-0.006,-0.0041,-0.0041,-0.0041,0,0.0145,0.0158,0.014,0.015,0.0151,0.0122,0.0136,0.0124,0.0104,0.0103,0.0083,0.004,0.0007,-0.0003,-0.0005,-0.0024,-0.0042,-0.0024,-0.004,-0.004,-0.004,-0.0056,-0.0058,-0.0039,-0.0039,-0.0039,-0.0039,0,0.0171,0.0181,0.0186,0.0192,0.019,0.0195,0.018,0.0174,0.0157,0.0147,0.013,0.0086,0.0063,0.0043,0.0017,0.0002,-0.0009,-0.0032,-0.0046,-0.0036,-0.0053,-0.0056,-0.0035,-0.0036,-0.0037,-0.0037,0,0,0.0194,0.0204,0.0207,0.0222,0.0215,0.022,0.0221,0.0222,0.0235,0.0199,0.0207,0.0156,0.0131,0.0112,0.0074,0.0041,0.0017,0.0005,0.0002,-0.0002,-0.0039,-0.0047,-0.0051,-0.001,-0.0011,-0.0011,-0.0047,0,0.0222,0.0256,0.025,0.0282,0.0299,0.0279,0.0289,0.0285,0.0272,0.0272,0.0222,0.0211,0.0159,0.0145,0.0105,0.0043,0.001,0.0029,-0.0054,-0.0056,-0.0058,-0.0054,-0.0039,-0.0069,-0.005,-0.005,-0.0051,0,0.0252,0.0274,0.031,0.0339,0.0345,0.0355,0.0373,0.0382,0.037,0.0359,0.0336,0.0296,0.0251,0.0195,0.0103,0.0119,0.0043,-0.0012,-0.0015,-0.004,-0.0069,-0.0079,-0.0076,-0.0056,-0.0055,-0.0055,-0.0055,0,0.0285,0.0319,0.0353,0.0361,0.0382,0.0394,0.0406,0.0409,0.0437,0.0416,0.0429,0.0366,0.0342,0.0241,0.0127,0.0111,0.0022,-0.0013,-0.0088,-0.0088,-0.01,-0.0101,-0.0088,-0.0088,-0.0088,-0.0088,-0.0088,0,0.0322,0.035,0.0372,0.0391,0.044,0.0438,0.049,0.0488,0.051,0.0556,0.0481,0.0497,0.0348,0.0279,0.0158,0.0041,0.0048,-0.0077,-0.01,-0.0082,-0.0082,-0.0093,-0.0093,-0.009,-0.0089,-0.0089,-0.0089,0,0.0353,0.0364,0.0411,0.0443,0.0456,0.0493,0.0554,0.0603,0.0603,0.0657,0.0653,0.06,0.0511,0.0367,0.021,0.0098,-0.0028,-0.0078,-0.0039,-0.0057,-0.0127,-0.0124,-0.0161,-0.0162,-0.0163,-0.0163,-0.0163,0,0.0372,0.0397,0.0451,0.0488,0.0504,0.0561,0.0613,0.0644,0.0708,0.073,0.077,0.0693,0.0663,0.0444,0.0223,0.0023,-0.0014,-0.0101,-0.0138,-0.0117,-0.0135,-0.0132,-0.0128,-0.0132,-0.0133,-0.0133,-0.0133,0,0.0412,0.0427,0.0469,0.0546,0.0605,0.0683,0.0758,0.0822,0.0868,0.0912,0.0956,0.0926,0.0712,0.0508,0.0222,0.0084,-0.0069,-0.0109,-0.0098,-0.0115,-0.0093,-0.011,-0.0107,-0.0133,-0.0133,-0.0133,-0.0133,-0.0133,0.0444,0.0483,0.0539,0.0616,0.0688,0.079,0.0867,0.0957,0.1058,0.1112,0.1084,0.103,0.0794,0.0425,0.0191,-0.0069,-0.0064,-0.0164,-0.0162,-0.0161,-0.015,-0.013,-0.0174,-0.0175,-0.0175,-0.0175,-0.0175,0,0.0488,0.0532,0.0607,0.0701,0.079,0.0821,0.0958,0.1035,0.1154,0.118,0.1197,0.0963,0.0735,0.0465,0.0079,-0.0141,-0.016,-0.0207,-0.0188,-0.0185,-0.0184,-0.0173,-0.0204,-0.0205,-0.0206,-0.0206,0,0,0.0513,0.0589,0.0628,0.077,0.0839,0.096,0.1042,0.1146,0.1198,0.1221,0.1177,0.1102,0.0792,0.051,0.0215,-0.0001,-0.0042,-0.004,0.0007,0.0067,0.0071,-0.0136,-0.0114,0,0,0,0,0]}],[{"header":{"parameterUnit":"m.s-1","parameterCategory":2,"la1":30.2991,"la2":30.254,"lo1":-89.0895,"lo2":-89.0444,"dy":0.0017,"dx":0.0017,"nx":28,"ny":28,"refTime":"2025-08-29T21:00:00:Z","depth":"4","parameterNumber":2,"parameterNumberName":"U-component_of_CURRENTS"},"data":[0,0,0,0,0,0,0,0,0,0,0,0,0,0,0,0,0,0,0,0,0,0,0,0,0,0,0,0,0,0,0,0,0,0,0,0,0,0,0,0,0,0,0,0,0,0,0,0,0,0,0,0,0,0,0,0,0,0,0.1183,0.1183,0,0.1203,0.1203,0.1203,0.1228,0.1228,0.1229,0.123,0.1267,0.1268,0.1268,0,0,0,0,0,0,0,0,0,0,0,0,0,0.1141,0.1142,0.1183,0.1183,0.1184,0.1203,0.1203,0.1203,0.1228,0.1228,0.1229,0.123,0.1267,0.1268,0.1268,0,0,0,0,0,0,0,0,0,0,0,0,0,0.1158,0.1142,0.1183,0.12,0.1201,0.1203,0.1203,0.1203,0.1228,0.1228,0.1229,0.123,0.1267,0.1268,0.1268,0.1256,0,0,0.1271,0.1271,0,0,0,0,0,0,0,0,0.1157,0.116,0.1197,0.1198,0.1201,0.1216,0.1203,0.1222,0.1227,0.1215,0.123,0.1231,0.1252,0.1254,0.1253,0.1258,0.1259,0.1271,0.1271,0.1271,0.1272,0,0,0,0,0,0,0,0.1156,0.1159,0.1189,0.1197,0.1199,0.1198,0.1202,0.1206,0.1228,0.1217,0.1219,0.1224,0.1253,0.1252,0.1254,0.126,0.1271,0.1271,0.1272,0.1272,0.1323,0.1324,0,0,0,0,0,0,0.1158,0.1158,0.1188,0.119,0.1183,0.1199,0.1202,0.1208,0.1227,0.1231,0.1223,0.1225,0.1251,0.1253,0.1256,0.1315,0.1271,0.1272,0.1272,0.1322,0.1323,0.1324,0,0,0,0,0,0,0.1157,0.1161,0.1187,0.1176,0.1179,0.1199,0.1205,0.1208,0.1235,0.1233,0.1237,0.125,0.1251,0.1255,0.1277,0.1314,0.1272,0.1273,0.1321,0.1322,0.1323,0.1387,0,0,0,0,0,0,0.1156,0.116,0.1176,0.1176,0.118,0.1206,0.1205,0.1208,0.1236,0.1239,0.1256,0.1259,0.1252,0.1276,0.1278,0.1314,0.1274,0.1319,0.1321,0.1323,0.1383,0.139,0.1396,0,0,0,0,0,0.1154,0.1166,0.1177,0.1181,0.1198,0.1207,0.1209,0.1224,0.1237,0.1251,0.126,0.126,0.1288,0.1277,0.1279,0.1317,0.1319,0.1321,0.1323,0.1381,0.1389,0.1396,0,0,0,0,0,0,0.1155,0.117,0.1181,0.1198,0.1212,0.1212,0.123,0.1239,0.1257,0.127,0.1267,0.127,0.1308,0.1297,0.1284,0.1335,0.1306,0.1308,0.1349,0.1357,0.1363,0.1352,0.1274,0,0,0,0,0,0.1163,0.1181,0.1191,0.1209,0.1219,0.1231,0.1242,0.1254,0.1264,0.1274,0.1285,0.1297,0.1312,0.1323,0.1332,0.1353,0.1349,0.1379,0.1385,0.1391,0.1383,0.1406,0.1414,0.1331,0.1331,0.1331,0,0,0.1168,0.1181,0.1191,0.1212,0.1225,0.1238,0.124,0.1267,0.1281,0.1275,0.1307,0.1324,0.1323,0.1353,0.1369,0.1351,0.1416,0.1393,0.1398,0.1387,0.1409,0.1417,0.1424,0.1332,0.1332,0.1332,0,0,0.1177,0.1201,0.1216,0.123,0.1258,0.1265,0.1279,0.1298,0.1314,0.134,0.1346,0.1375,0.1396,0.14,0.1404,0.1445,0.1452,0.1466,0.1487,0.1511,0.1518,0.1524,0.1548,0.1555,0.1465,0.1465,0.1465,0,0.1186,0.1203,0.1223,0.1238,0.1252,0.128,0.1294,0.131,0.1335,0.1352,0.136,0.1405,0.1412,0.144,0.1459,0.146,0.1479,0.1462,0.1519,0.1525,0.153,0.1553,0.156,0.1468,0.1468,0.1468,0.1467,0,0.1195,0.1219,0.1231,0.126,0.1277,0.1299,0.1319,0.135,0.1379,0.1394,0.1443,0.1452,0.1477,0.1495,0.1491,0.1538,0.1543,0.153,0.1502,0.1542,0.1564,0.1571,0.1473,0.1472,0.1471,0.147,0,0,0.1184,0.1228,0.1235,0.125,0.1292,0.1301,0.134,0.1371,0.1401,0.1439,0.1473,0.1507,0.153,0.1535,0.1547,0.1567,0.1629,0.1572,0.1572,0.1598,0.1697,0.1608,0.1607,0.1641,0.1642,0.1643,0.1705,0,0.1188,0.1215,0.1239,0.1268,0.1281,0.132,0.1346,0.1384,0.1426,0.1468,0.1497,0.154,0.154,0.1573,0.1593,0.1624,0.1648,0.1613,0.1651,0.1651,0.1569,0.1611,0.1646,0.1709,0.1711,0.1712,0.1713,0,0.1181,0.1202,0.123,0.1269,0.1279,0.1304,0.1359,0.139,0.1455,0.1492,0.1544,0.1575,0.1624,0.1615,0.1677,0.1665,0.1686,0.1699,0.1702,0.1594,0.1574,0.1655,0.1725,0.1724,0.1723,0.1722,0.1721,0,0.1147,0.1191,0.1214,0.1228,0.1278,0.1305,0.134,0.1404,0.1439,0.1523,0.1567,0.162,0.1672,0.1695,0.1736,0.1722,0.1798,0.1774,0.1709,0.1703,0.1737,0.173,0.1809,0.1809,0.1808,0.1808,0.1808,0,0.1124,0.1143,0.1205,0.1214,0.1245,0.1291,0.1339,0.1387,0.1464,0.1506,0.1584,0.1622,0.1701,0.1752,0.1759,0.176,0.182,0.1714,0.1711,0.1765,0.176,0.1743,0.1735,0.1811,0.181,0.181,0.1809,0,0.1075,0.1119,0.1143,0.1204,0.123,0.1251,0.1336,0.1365,0.1458,0.152,0.1555,0.1659,0.1724,0.1782,0.184,0.1793,0.1795,0.178,0.1852,0.1851,0.1678,0.1673,0.1699,0.1696,0.1694,0.1692,0.169,0,0.1047,0.1058,0.1127,0.1144,0.1176,0.1227,0.1259,0.1353,0.1385,0.1517,0.1529,0.1648,0.1701,0.1714,0.1777,0.1796,0.1775,0.1769,0.1696,0.1672,0.1667,0.1665,0.1662,0.1687,0.1686,0.1685,0.1685,0,0.0987,0.1024,0.1044,0.1086,0.1121,0.1151,0.1207,0.1226,0.1331,0.1433,0.1479,0.1525,0.1605,0.1651,0.17,0.1697,0.1762,0.1744,0.1748,0.168,0.1657,0.1654,0.1654,0.1677,0.1678,0.1679,0.1679,0,0.0942,0.0941,0.098,0.1004,0.1047,0.1051,0.1096,0.1136,0.1188,0.1335,0.1347,0.1468,0.1582,0.1601,0.1627,0.1641,0.1606,0.1544,0.1557,0.1567,0.1495,0.1445,0.1398,0,0,0,0,0,0.0886,0.0878,0.0895,0.0908,0.0946,0.0974,0.1044,0.1092,0.1203,0.1202,0.1274,0.1335,0.1401,0.1463,0.1451,0.1563,0.1608,0.1542,0.1541,0.1633,0.1642,0.157,0,0,0,0,0,0,0.0848,0.086,0.0862,0.0823,0.0822,0.085,0.0894,0.097,0.0976,0.1104,0.1148,0.1253,0.1337,0.1397,0.1425,0.1445,0.1417,0.1623,0.162,0.1628,0.1636,0.1644,0.1573,0,0,0,0,0]},{"header":{"parameterUnit":"m.s-1","parameterCategory":2,"la1":30.2991,"la2":30.254,"lo1":-89.0895,"lo2":-89.0444,"dy":0.0017,"dx":0.0017,"nx":28,"ny":28,"refTime":"2025-08-29T21:00:00:Z","depth":"4","parameterNumber":3,"parameterNumberName":"V-component_of_CURRENTS"},"data":[0,0,0,0,0,0,0,0,0,0,0,0,0,0,0,0,0,0,0,0,0,0,0,0,0,0,0,0,0,0,0,0,0,0,0,0,0,0,0,0,0,0,0,0,0,0,0,0,0,0,0,0,0,0,0,0,0,0,0.0132,0.0132,0,0.0118,0.0117,0.0117,0.0114,0.0114,0.0114,0.0115,0.0084,0.0083,0.0082,0,0,0,0,0,0,0,0,0,0,0,0,0,0.0132,0.0132,0.0132,0.0132,0.0131,0.0118,0.0117,0.0117,0.0114,0.0114,0.0114,0.0115,0.0084,0.0083,0.0082,0,0,0,0,0,0,0,0,0,0,0,0,0,0.0126,0.0132,0.0132,0.0128,0.0128,0.0118,0.0117,0.0117,0.0114,0.0114,0.0115,0.0115,0.0085,0.0083,0.0082,0.007,0,0,0.0078,0.0077,0,0,0,0,0,0,0,0,0.0127,0.0126,0.0129,0.0129,0.0128,0.0118,0.0106,0.0101,0.0114,0.0119,0.0115,0.0115,0.0094,0.0092,0.0089,0.0069,0.0067,0.0078,0.0077,0.0076,0.0076,0,0,0,0,0,0,0,0.0127,0.0127,0.0126,0.0129,0.0128,0.0119,0.0119,0.0105,0.0105,0.0119,0.0119,0.0117,0.0093,0.009,0.0088,0.0067,0.0078,0.0076,0.0076,0.0075,0.0037,0.0036,0,0,0,0,0,0,0.013,0.0127,0.0126,0.0126,0.0128,0.0119,0.0119,0.0121,0.0106,0.0104,0.0117,0.0117,0.0092,0.009,0.0087,0.0084,0.0076,0.0075,0.0074,0.0037,0.0037,0.0036,0,0,0,0,0,0,0.013,0.013,0.0127,0.0126,0.0125,0.0119,0.0122,0.0121,0.0121,0.0105,0.0102,0.0119,0.0092,0.0089,0.0081,0.0083,0.0074,0.0073,0.0037,0.0037,0.0036,0.0071,0,0,0,0,0,0,0.0131,0.0131,0.0135,0.0126,0.0125,0.0125,0.0121,0.012,0.012,0.012,0.0105,0.0103,0.0092,0.0083,0.008,0.0081,0.0072,0.0037,0.0037,0.0037,0.0071,0.0072,0.0074,0,0,0,0,0,0.0131,0.0136,0.0135,0.0135,0.0131,0.0126,0.0124,0.012,0.012,0.0121,0.0113,0.0103,0.0078,0.0083,0.0078,0.0079,0.0037,0.0037,0.0037,0.007,0.0072,0.0074,0,0,0,0,0,0,0.0139,0.0136,0.0135,0.014,0.0135,0.0125,0.0127,0.0123,0.0117,0.0119,0.0104,0.0101,0.0093,0.0079,0.0084,0.0065,0.0054,0.0053,0.0081,0.0083,0.0085,0.0103,0.0071,0,0,0,0,0,0.0142,0.0147,0.014,0.0144,0.0143,0.0135,0.0133,0.0131,0.0124,0.0122,0.0111,0.0098,0.0086,0.0081,0.0067,0.0059,0.0044,0.0054,0.0056,0.0058,0.0068,0.0047,0.0048,0.0035,0.0035,0.0035,0,0,0.0145,0.0145,0.0147,0.0146,0.0142,0.0147,0.0135,0.0135,0.0139,0.0119,0.0121,0.0104,0.0085,0.0077,0.0072,0.0068,0.0051,0.0057,0.0059,0.0069,0.0047,0.0048,0.005,0.0035,0.0035,0.0035,0,0,0.0155,0.0155,0.0163,0.0162,0.016,0.0156,0.0157,0.015,0.0148,0.0145,0.0131,0.0119,0.0099,0.0089,0.008,0.0082,0.006,0.0071,0.0097,0.0077,0.0078,0.0079,0.0057,0.0055,0.0074,0.0074,0.0074,0,0.016,0.0172,0.0163,0.0172,0.0177,0.0162,0.0175,0.0169,0.016,0.0163,0.015,0.0126,0.0107,0.0103,0.0103,0.0087,0.0071,0.0094,0.008,0.0081,0.0081,0.0058,0.0056,0.0075,0.0075,0.0075,0.0075,0,0.0176,0.0188,0.0192,0.0201,0.0203,0.021,0.0204,0.0203,0.0197,0.0193,0.0187,0.0158,0.0148,0.0132,0.0119,0.0112,0.0099,0.0085,0.0079,0.0085,0.006,0.0057,0.0078,0.0077,0.0077,0.0076,0,0,0.0186,0.0202,0.0205,0.0221,0.0223,0.023,0.0234,0.0241,0.0257,0.0232,0.0245,0.0213,0.02,0.0189,0.0164,0.0144,0.0126,0.012,0.0118,0.0106,0.0079,0.0056,0.005,0.0111,0.011,0.011,0.0059,0,0.0204,0.0232,0.0233,0.0263,0.028,0.0274,0.0286,0.0289,0.0286,0.0291,0.0258,0.0258,0.022,0.0217,0.0191,0.0146,0.0122,0.0141,0.0069,0.0067,0.0052,0.0048,0.011,0.0057,0.0056,0.0056,0.0055,0,0.0222,0.0243,0.0276,0.0309,0.0317,0.0331,0.0357,0.0367,0.0366,0.0366,0.0353,0.0325,0.0296,0.026,0.0188,0.0202,0.0147,0.0105,0.0102,0.007,0.0039,0.0049,0.0051,0.0051,0.0051,0.0052,0.0052,0,0.0241,0.0275,0.0307,0.0316,0.0346,0.0362,0.038,0.0392,0.042,0.0416,0.0429,0.0384,0.0368,0.0293,0.02,0.0196,0.0114,0.0096,0.0021,0.0018,0.0041,0.004,0.0043,0.0043,0.0043,0.0044,0.0044,0,0.0263,0.029,0.0321,0.0339,0.0389,0.0397,0.0452,0.0458,0.0486,0.0523,0.0474,0.0477,0.0376,0.0312,0.022,0.0113,0.0126,0.0028,0.0005,0.0055,0.0056,0.0038,0.0039,0.0042,0.0042,0.0042,0.0043,0,0.0278,0.0295,0.0339,0.038,0.0399,0.0437,0.0507,0.0549,0.0563,0.0603,0.0604,0.0555,0.0465,0.0352,0.0229,0.0146,0.0041,-0.0002,0.0062,0.0042,-0.0047,-0.0044,-0.0086,-0.0087,-0.0088,-0.0089,-0.009,0,0.0288,0.0311,0.0371,0.0407,0.0429,0.0492,0.0542,0.0585,0.063,0.0646,0.0662,0.0592,0.0536,0.0351,0.0224,0.0046,0.0015,-0.004,-0.0047,-0.0041,-0.0059,-0.0055,-0.0051,-0.0092,-0.0092,-0.0092,-0.0092,0,0.0309,0.0329,0.0368,0.0441,0.0499,0.0572,0.0639,0.0678,0.0722,0.0735,0.0709,0.0607,0.0502,0.0349,0.0209,0.0079,-0.0004,-0.0052,-0.0051,-0.0057,-0.0048,-0.0064,-0.0059,-0.0096,-0.0096,-0.0095,-0.0095,0,0.0326,0.0356,0.0408,0.0473,0.0549,0.062,0.0661,0.0707,0.0751,0.0758,0.0745,0.0626,0.0564,0.0366,0.0237,0.0106,0.0068,0.0021,0.0018,0.002,0.0059,0.0087,0.0064,0,0,0,0,0,0.034,0.0374,0.0437,0.0508,0.0585,0.0628,0.0711,0.0747,0.0783,0.077,0.0761,0.0657,0.0461,0.038,0.0245,0.0207,0.004,0.0042,-0.0016,-0.0116,-0.0112,-0.0088,0,0,0,0,0,0,0.0348,0.0403,0.0434,0.0524,0.0576,0.0665,0.0718,0.0746,0.074,0.0748,0.065,0.0607,0.0422,0.0533,0.0235,0.0196,0.0137,-0.0044,-0.0048,-0.0119,-0.0115,-0.0111,-0.0085,0,0,0,0,0]}]]